Flag for Germany Weather past 2 weeks in Buchholz in der Nordheide, Lower Saxony, Germany

Now
64 °F

Sunny.


Feels Like: 64 °F
Forecast: 45 / 59 °F
Wind: 6 mph from Southwest

Location: Hamburg-Finkenwerder

Current Time: May 22, 2015 at 7:42:30 PM

Latest Report: May 22, 2015 at 7:20 PM


Visibility: 10 mi

Pressure: 30.15 "Hg

Humidity: 56%

Dew point: 48 °F

Location of Buchholz in der NordheideLocation

Historic Weather in Buchholz in der Nordheide — Graph

°F

Buchholz in der Nordheide temperature yesterday

Maximum temperature yesterday: 57 °F (at 4:50 PM)
Minimum temperature yesterday: 43 °F (at 6:20 AM)
Average temperature yesterday: 53 °F

Past Weeks' High & Low Weather Summary

 TemperatureHumidityPressure
High75 °F (May 11, 5:20 PM)100% (May 8, 6:20 AM)30.30 "Hg (May 8, 6:20 AM)
Low41 °F (May 8, 6:20 AM)36% (May 11, 5:20 PM)29.59 "Hg (May 19, 6:20 AM)
Average56 °F70%30.00 "Hg
* Reported May 7 6:20 PM — May 22 6:20 PM, Buchholz in der Nordheide, Weather by CustomWeather, © 2015

Note: Actual official high and low records may vary slightly from our data, if they occured in-between our weather recording intervals... More about our weather records

Advertising

Buchholz in der Nordheide weather history for previous 24 hours

 ConditionsComfort  
Time TempWeatherWind HumidityBarometerVisibility
6:20 PM
Fri, May 22
64 °FSunny.6 mph52%30.18 "Hg10 mi
5:50 PM66 °FPassing clouds.7 mph49%30.18 "HgN/A
5:20 PM66 °FSunny.8 mph49%30.18 "Hg10 mi
4:50 PM64 °FSunny.8 mph52%30.18 "Hg10 mi
4:20 PM64 °FSunny.9 mph56%30.18 "Hg10 mi
3:50 PM66 °FSunny.8 mph49%30.21 "Hg10 mi
3:20 PM64 °FPartly sunny.9 mph52%30.21 "HgN/A
2:50 PM64 °FPartly sunny.9 mph49%30.21 "HgN/A
2:20 PM66 °FPartly sunny.9 mph46%30.21 "HgN/A
1:50 PM64 °FScattered clouds.8 mph52%30.24 "HgN/A
1:20 PM64 °FScattered clouds.9 mph52%30.24 "HgN/A
12:50 PM64 °FScattered clouds.8 mph52%30.24 "HgN/A
12:20 PM64 °FScattered clouds.8 mph56%30.24 "HgN/A
11:50 AM61 °FScattered clouds.9 mph59%30.27 "HgN/A
11:20 AM59 °FPassing clouds.9 mph63%30.27 "HgN/A
10:50 AM59 °FPassing clouds.9 mph63%30.27 "HgN/A
10:20 AM57 °FPassing clouds.7 mph67%30.27 "HgN/A
9:50 AM55 °FPassing clouds.7 mph72%30.30 "HgN/A
9:20 AM54 °FPassing clouds.5 mph82%30.30 "HgN/A
8:50 AM52 °FSunny.6 mph88%30.30 "Hg10 mi
8:20 AM52 °FPassing clouds.5 mph88%30.30 "HgN/A
7:50 AM50 °FPassing clouds.5 mph94%30.30 "HgN/A
7:20 AM48 °FSunny.2 mph100%30.30 "Hg10 mi
6:50 AM46 °FSunny.2 mph100%30.30 "Hg10 mi
6:20 AM45 °FSunny.3 mph100%30.27 "Hg10 mi
8:50 PM
Thu, May 21
55 °FPassing clouds.5 mph63%30.24 "HgN/A
8:20 PM55 °FPassing clouds.6 mph63%30.24 "HgN/A
7:50 PM57 °FPassing clouds.8 mph51%30.24 "HgN/A
7:20 PM57 °FSunny.12 mph55%30.24 "Hg10 mi
Weather by CustomWeather, © 2015

See weather overviewHow to use our weather pages